FENGYUN 1C DEB

Satellite information

Favourite Embed

Satellite Type and Status

DEBRISIN ORBIT

Key statistics

Satellite FENGYUN 1C DEB at a glance.

Uptime

9495

Days in orbit

Revolutions

≈ 14.2

Per day

Orbit

SSO

Sun Synchronous Orbit

Inclination

98.6

Latest

Satellite identification and parameters

Extended collection of information and parameters for FENGYUN 1C DEB.

Object identification

Identified? True

Debris? True

Object name: FENGYUN 1C DEB

International designator: 1999-025DJR

Object number (NORAD): 35089

Object ID (CCSDS): 35089

Country: PEOPLES REPUBLIC OF CHINA (PRC)

Current information (Y/N): Y

RCS size: SMALL

Orbital parameters

Period: 101.49 minutes

Inclination: 98.5658 deg

SMA: 7207.371 km

Apoapsis: 849.542 km

Periapsis: 808.931 km

RAAN: 144.7001 deg

Eccentricy: 0.0028173

Argument of periapsis: 342.1576 deg

Mean anomaly: 17.8609 deg

Mean motion: 14.18853073 rev/day

Mean motion (dot): 0.00001133 rev/day2

B* drag term: 0.0005628 1/REarth

Two-line elements (TLE)

Creation date: May 8, 2025, 3:01 a.m.

Reference frame: TEME

Reference center: EARTH

Epoch: May 7, 2025, 12:29 p.m. UTC

TLE line 0: 0 FENGYUN 1C DEB

TLE line 1: 1 35089U 99025DJR 25127.52038802 .00001133 00000-0 56280-3 0 9997

TLE line 2: 2 35089 98.5658 144.7001 0028173 342.1576 17.8609 14.18853073577666

Live tracking on map

Real-time ground track for satellite FENGYUN 1C DEB.

In-orbit conjunctions

A list of the most updated potential collisions computed for object FENGYUN 1C DEB.

Target Orbit TCA Probability of collision Miss distance Type
CZ-6A DEB LEO 2025-03-03 11:29:20 0.0002888575 531.0 (m) DEBRIS
CZ-6A DEB LEO 2024-12-21 08:13:09 0.0002111052 163.0 (m) DEBRIS
FENGYUN 1C DEB SSO 2024-09-29 08:38:04 0.0001395735 451.0 (m) DEBRIS

Associated space launch

Chinese polar orbiting meteorological satellite

FENGYUN 1C DEB was lifted into orbit during the mission ‘Long March 4B | Feng Yun 1C’, on board a Long March 4B space rocket.

The launch took place on May 10, 1999, 1:33 a.m. from Launch Complex 7.

For more information about the launch, click the button.

Launch to space Long March 4B | Feng Yun 1C
Long March 4B | Feng Yun 1C

Agency: N/A

Status: Launch Successful

Launch date: May 10, 1999, 1:33 a.m. UTC

Rocket: Long March 4B

Launch pad: Launch Complex 7

Location: Taiyuan Satellite Launch Center, People's Republic of China

...

Latest news about this satellite

There are no fresh news available about this satellite. Check back as we update our databases every day.


Newsletter sign-up

Weekly statistics, charts and insights to help you stay on top of the space industry.